Location: Lane
(33.5226°N, 79.8788°W)
Time: 19:53:55
(UTC+00:00)

Explorer 11/Cluster Stage 4 - Pass Details

Date: 03 October 2022
Orbit: 466 x 1247 km, 28.8° (Epoch: 01 December)

Event Time Altitude Azimuth Distance (km) Brightness Sun altitude
Rises 19:05:34 0° 265° (W) 4,077 10.7 43.2°
Reaches altitude 10° 19:08:39 10° 262° (W) 3,037 10.3 42.8°
Maximum altitude 19:16:00 58° 186° (S) 1,166 8.8 41.7°
Drops below altitude 10° 19:22:02 10° 109° (ESE) 2,509 9.0 40.8°
Sets 19:24:22 0° 105° (ESE) 3,327 9.6 40.5°
